{"data":{"norad_id":87237,"epoch":"2026-09-13T03:04:02.127360Z","epoch_age_seconds":651217,"freshness":"AGED","line1":"1 87237U          26256.12780240  .00000137  00000+0  13711-3 0  9998","line2":"2 87237  99.2231 315.5489 0102147 261.5707 126.4395 13.91968616649934","mean_motion":13.91968616,"eccentricity":0.0102147,"inclination_deg":99.2231,"raan_deg":315.5489,"arg_perigee_deg":261.5707,"mean_anomaly_deg":126.4395,"bstar":0.00013711,"rev_number":64993,"period_min":103.4506082571,"perigee_km":847.17399822939,"apogee_km":996.30610648279,"semimajor_km":7299.8770523561,"source":"CELESTRAK","updated_at":"2026-09-20T09:00:32.452180Z"}}